Regional Weather Roundup
Issued by NWS

Home | Current Version | Previous Version | Text Only | Print | Product List | Glossary On
Versions: 1 2 3 4 5 6 7 8 9 10 11 12 13 14 15 16 17 18 19 20 21 22 23 24 25 26 27 28 29 30 31 32 33 34 35 36 37 38 39 40 41 42 43 44 45 46 47 48 49 50
000
ASCA42 TJSJ 211010
RWRPR
PUERTO RICO/U.S. VIRGIN ISLANDS HOURLY WEATHER ROUNDUP
NATIONAL WEATHER SERVICE SAN JUAN PR
600 AM AST SUN JAN 21 2018

PRZ001>002-007>008-010-211100-
PUERTO RICO

CITY           SKY/WX    TMP DP  RH WIND       PRES   REMARKS
SAN JUAN LMM   PTCLDY    73  73 100 SE3       30.02S
$$

VIZ001>002-211100-
U.S. VIRGIN ISLANDS

CITY           SKY/WX    TMP DP  RH WIND       PRES   REMARKS
CHARLOTTE AMA  CLEAR     73  70  88 E6        30.02R
CHRISTIANSTED  CLEAR     73  70  88 NE7       30.02S
$$

HOURLY WEATHER ROUNDUP FOR THE NEWS MEDIA

CITY           SKY/WX    TMP DP  RH WIND       PRES   REMARKS
ORLANDO        FAIR      58  50  75 NE5       30.20F
NEW YORK       FAIR      37  29  72 W8        30.10R WCI  31
NEWARK         FAIR      37  27  67 CALM      30.10R
CHICAGO        CLOUDY    38  34  85 CALM      29.97F
HARTFORD       FAIR      28  25  88 CALM      30.05R
BOSTON         CLOUDY    36  29  75 S8        30.04R WCI  30
DALLAS         CLOUDY    64  59  83 S17G25    29.89F
PHILADELPHIA   FAIR      33  28  81 W3        30.14R
LOS ANGELES    CLEAR     52  24  33 N5        30.19R
WASHINGTON DC  FAIR      29  26  89 CALM      30.15R


USA.gov is the U.S. government's official web portal to all federal, state and local government web resources and services.